| time (UTC) | temp C | wind direction | speed KPH | gust KPH | rain 1hr cm | rain 24hr cm | rain mn cm | humidity % | barometer mb |
| 20260506143159 | 9 | 333 | 1.6 | 8.0 | 0.00 | 0.23 | 0.00 | 62 | 1010.9 |
| 20260506133006 | 8 | 50 | 0.0 | 6.4 | 0.00 | 0.23 | 0.00 | 71 | 1010.2 |
| 20260506131505 | 7 | 285 | 0.0 | 8.0 | 0.00 | 0.23 | 0.00 | 73 | 1010.1 |
| 20260506110156 | 6 | 336 | 0.0 | 3.2 | 0.00 | 0.23 | 0.00 | 71 | 1008.4 |
| 20260506104655 | 6 | 300 | 0.0 | 4.8 | 0.00 | 0.23 | 0.00 | 68 | 1008.4 |
| 20260506103023 | 7 | 283 | 1.6 | 6.4 | 0.00 | 0.23 | 0.00 | 66 | 1008.3 |
| 20260506091511 | 7 | 328 | 0.0 | 3.2 | 0.00 | 0.23 | 0.00 | 62 | 1007.9 |
| 20260506083005 | 7 | 309 | 0.0 | 4.8 | 0.00 | 0.23 | 0.00 | 60 | 1007.5 |
| 20260506081502 | 7 | 227 | 0.0 | 4.8 | 0.00 | 0.23 | 0.00 | 59 | 1007.4 |
| 20260506070152 | 8 | 290 | 0.0 | 6.4 | 0.00 | 0.23 | 0.00 | 57 | 1007.4 |
| 20260506050158 | 8 | 304 | 0.0 | 6.4 | 0.00 | 0.23 | 0.00 | 55 | 1007.6 |
| 20260506034507 | 8 | 296 | 0.0 | 4.8 | 0.00 | 0.43 | 0.43 | 55 | 1007.2 |
| 20260506014642 | 10 | 314 | 1.6 | 8.0 | 0.00 | 0.58 | 0.43 | 48 | 1007.0 |
| 20260506013015 | 10 | 264 | 1.6 | 11.3 | 0.00 | 0.58 | 0.43 | 46 | 1006.8 |
| 20260506010005 | 10 | 309 | 4.8 | 9.7 | 0.00 | 0.58 | 0.43 | 44 | 1006.7 |
| 20260506004641 | 10 | 297 | 1.6 | 8.0 | 0.00 | 0.58 | 0.43 | 45 | 1006.7 |
| 20260506003017 | 10 | 299 | 0.0 | 9.7 | 0.00 | 0.58 | 0.43 | 45 | 1006.7 |
| 20260505234645 | 11 | 299 | 1.6 | 6.4 | 0.00 | 0.61 | 0.43 | 51 | 1006.1 |
| 20260505233011 | 11 | 303 | 1.6 | 9.7 | 0.00 | 0.61 | 0.43 | 51 | 1006.0 |
| 20260505231508 | 11 | 293 | 3.2 | 9.7 | 0.00 | 0.61 | 0.43 | 51 | 1006.0 |
| 20260505230009 | 11 | 269 | 0.0 | 11.3 | 0.00 | 0.61 | 0.43 | 51 | 1006.0 |
| 20260505224505 | 11 | 268 | 1.6 | 11.3 | 0.00 | 0.61 | 0.43 | 49 | 1006.1 |
| 20260505223005 | 11 | 288 | 3.2 | 12.9 | 0.00 | 0.61 | 0.43 | 53 | 1006.0 |
| 20260505221503 | 11 | 264 | 6.4 | 17.7 | 0.00 | 0.61 | 0.43 | 55 | 1006.0 |
| 20260505214642 | 11 | 293 | 3.2 | 19.3 | 0.00 | 0.61 | 0.43 | 61 | 1006.0 |
| 20260505211503 | 11 | 284 | 1.6 | 14.5 | 0.00 | 0.61 | 0.43 | 69 | 1005.8 |
| 20260505180013 | 9 | 230 | 0.0 | 9.7 | 0.05 | 0.61 | 0.43 | 86 | 1005.5 |
| 20260505174509 | 8 | 236 | 1.6 | 8.0 | 0.08 | 0.61 | 0.43 | 88 | 1005.4 |